Wetter

ACHTUNG: Die hier angeboten Wetter-Informationen sind nicht geeicht und dürfen für Flugvorbereitungen nicht verwendet werden
ACG Flugwetter
METAR/TAF LOXZ

LOXZ 262050Z 08003KT 9999 -SN FEW010 BKN018 M02/M05 Q1015

TAF LOXZ 181415Z 1812/1824 CNL

METAR/TAF LOXA

LOXA 100820Z VRB02KT 50KM FEW120AC SCT300CI 17/13 Q1021 NOSIG RMK SCT

TAF TAF LOXA 090515Z 0906/0918 VRB03KT 0500 FG SCT060 BECMG 0906/0908 9999 NSW FEW060 BECMG 0909/0911 04007KT TEMPO 0910/0915 SCT060 BKN100

METAR/TAF LOWG 

LOWG 270050Z AUTO 04003KT 9999 SCT040 BKN042 M00/M02 Q1016

TAF LOWG 261715Z 2618/2718 VRB05KT 9999 BKN035 TX02/2713Z TNM01/2706Z TEMPO 2618/2709 0300 -SG BCFG FZFG BKN003 PROB30 TEMPO 2710/2712 01010KT

(Information der letzten Stunde)

(Information der letzten Stunde)

Dichtehöhe (in LOGT)
Temperatur / Windchill der letzten 10 Tage

Ext. Links zu Wetterdiensten

ALDIS

Öster.- Unwetterzentrale